Location: Cincinnati Observatory Center
(39.1389°N, 84.4225°W)
Time: 13:16:33
(UTC-05:00)

Amateur Radio Satellites - All Passes

Search period start: 22 January 2017 12:46
Search period end: 23 January 2017 12:46
Location: Cincinnati Observatory Center, 39.1389°N, 84.4225°W

Satellite Date Start Highest point End Downlink Frequencies (MHz)
Time Altitude Azimuth
VELOX 1 22 Jan 12:47:12 12:51:35 75° 101° (ESE) 12:55:58 145.980
SPROUT 22 Jan 12:59:38 13:03:53 79° 101° (E) 13:08:09 437.525
AO-7 22 Jan 13:03:15 13:06:53 14° 47° (NE) 13:10:31 29.400- 29.500
UKube-1 22 Jan 13:06:57 13:11:01 40° 99° (E) 13:15:03 .
DX 1 22 Jan 13:12:04 13:16:23 66° 102° (ESE) 13:20:40 434.975-435.025
Oscar 19 22 Jan 13:15:10 13:20:22 84° 75° (ENE) 13:25:36 437.125/150
AIST 1 22 Jan 13:20:21 13:23:37 21° 88° (E) 13:26:53
Cosmos 2491 22 Jan 13:24:23 13:33:09 67° 80° (E) 13:41:54 435.465 / 435.565
Cosmos 2504 22 Jan 13:25:00 13:28:39 13° 78° (ENE) 13:32:14 435.465 / 435.565
CUBEBUG 1 22 Jan 13:28:48 13:32:10 23° 292° (WNW) 13:35:31 437.445
YUBILEINY 22 Jan 13:29:15 13:36:40 32° 84° (E) 13:44:06 435.215
BUGSAT 1 22 Jan 13:37:50 13:39:17 12° 268° (W) 13:40:45 437.445
AO-85 22 Jan 13:39:09 13:43:53 66° 119° (ESE) 13:48:17 145.980
Gurwin Techsat 1B 22 Jan 13:46:54 13:52:12 88° 76° (ENE) 13:57:33 435.225
AISAT 22 Jan 13:51:10 13:54:27 21° 293° (WNW) 13:57:44 437.250
50 SAT 22 Jan 13:55:18 13:57:41 17° 292° (WNW) 14:00:02 437.505
DANDE 22 Jan 13:55:37 14:01:42 23° 67° (ENE) 14:07:58 436.750
ITAMSAT 1 22 Jan 14:04:04 14:08:17 26° 66° (ENE) 14:12:29 435.822/435.867
TISAT 1 22 Jan 14:19:40 14:23:52 86° 99° (E) 14:28:03 437.305
CUSAT 1 22 Jan 14:25:30 14:33:33 83° 81° (E) 14:40:42 437.405
VELOX 1 22 Jan 14:26:56 14:27:24 10° 298° (WNW) 14:27:52 145.980
BEESAT 22 Jan 14:28:18 14:31:45 20° 94° (E) 14:35:12 436.000
SWISSCUBE 22 Jan 14:29:55 14:33:43 23° 95° (E) 14:37:29 437.505
UKube-1 22 Jan 14:43:54 14:46:43 17° 295° (WNW) 14:49:31 .
AO-7 22 Jan 14:49:47 14:57:58 62° 67° (ENE) 15:06:11 29.400- 29.500
DX 1 22 Jan 14:50:37 14:52:00 11° 298° (WNW) 14:53:22 434.975-435.025
AIST 1 22 Jan 14:57:11 15:01:01 29° 284° (WNW) 15:04:49
Oscar 19 22 Jan 14:59:25 15:00:17 10° 271° (W) 15:01:09 437.125/150
BEESAT 3 22 Jan 15:12:04 15:14:33 17° 110° (ESE) 15:17:05 437.485
Cosmos 2504 22 Jan 15:12:06 15:20:46 79° 95° (E) 15:28:56 435.465 / 435.565
JUGNU 22 Jan 15:13:40 15:15:03 11° 180° (S) 15:16:26 437.505
AO-85 22 Jan 15:21:51 15:24:39 16° 315° (NW) 15:27:19 145.980
Cosmos 2491 22 Jan 15:22:33 15:29:10 25° 279° (W) 15:35:49 435.465 / 435.565
YUBILEINY 22 Jan 15:24:25 15:32:58 54° 283° (WNW) 15:41:37 435.215
ITUPSAT 1 22 Jan 15:31:50 15:36:40 88° 109° (ESE) 15:41:29 437.325
O/OREOS (USA 219) 22 Jan 15:33:17 15:37:07 27° 61° (ENE) 15:40:57 437.305
DANDE 22 Jan 15:37:03 15:45:07 81° 263° (W) 15:53:25 436.750
MOZHAYETS 4 22 Jan 15:40:12 15:44:26 34° 97° (E) 15:48:38
ITAMSAT 1 22 Jan 15:42:48 15:47:32 37° 262° (W) 15:52:19 435.822/435.867
BEESAT 2 22 Jan 16:01:04 16:04:18 25° 113° (ESE) 16:07:34 435.950
KKS-1 22 Jan 16:04:00 16:06:57 17° 94° (E) 16:09:53 437.445
BEESAT 22 Jan 16:05:11 16:09:40 41° 289° (WNW) 16:14:09 436.000
SWISSCUBE 22 Jan 16:07:11 16:11:32 35° 290° (WNW) 16:15:53 437.505
CUSAT 1 22 Jan 16:09:16 16:14:21 19° 280° (W) 16:19:08 437.405
HORYU 2 22 Jan 16:11:18 16:13:47 15° 64° (ENE) 16:16:15 437.375
GOMX 1 22 Jan 16:16:38 16:20:09 18° 66° (ENE) 16:23:34 467.674
BRITE-PL 22 Jan 16:22:22 16:27:50 50° 72° (ENE) 16:33:13 437.365/2234.400
SO-50 22 Jan 16:28:30 16:32:56 54° 55° (NE) 16:37:18 436.795
CUBESAT XI-V 22 Jan 16:32:57 16:36:12 18° 93° (E) 16:39:25 437.345
AUBIESAT-1 22 Jan 16:33:12 16:35:52 22° 101° (ESE) 16:38:30 437.475
AO-7 22 Jan 16:44:15 16:51:08 28° 264° (W) 16:58:06 29.400- 29.500
DOVE 4 22 Jan 16:45:26 16:47:20 12° 64° (ENE) 16:49:12 437.250
SRMSAT 22 Jan 16:47:56 16:48:57 10° 174° (S) 16:49:56 437.500
BEESAT 3 22 Jan 16:48:13 16:51:51 37° 307° (NW) 16:55:33 437.485
STARS 22 Jan 16:50:04 16:53:39 25° 96° (E) 16:57:14 437.465
Cosmos 2504 22 Jan 17:08:49 17:14:54 21° 292° (WNW) 17:20:47 435.465 / 435.565
CUTE-I 22 Jan 17:10:34 17:14:52 26° 66° (ENE) 17:19:10 437.470
O/OREOS (USA 219) 22 Jan 17:12:37 17:16:27 27° 257° (WSW) 17:20:16 437.305
ITUPSAT 1 22 Jan 17:13:07 17:13:44 10° 300° (WNW) 17:14:21 437.325
LilacSat-2 22 Jan 17:17:03 17:20:00 22° 70° (ENE) 17:22:59 437.200
MOZHAYETS 4 22 Jan 17:17:44 17:21:23 23° 292° (WNW) 17:25:00
DANDE 22 Jan 17:22:14 17:26:46 16° 279° (W) 17:31:23 436.750
M-CUBED/EXP-1 PRIME 22 Jan 17:32:40 17:35:44 35° 293° (WNW) 17:38:43 437.505
BEESAT 2 22 Jan 17:38:35 17:41:58 27° 309° (NW) 17:45:25 435.950
KKS-1 22 Jan 17:39:31 17:43:39 39° 289° (WNW) 17:47:46 437.445
HORYU 2 22 Jan 17:45:37 17:49:53 50° 260° (W) 17:54:11 437.375
HO-68 22 Jan 17:46:45 17:51:13 18° 56° (NE) 17:55:40 435.675
GOMX 1 22 Jan 17:52:30 17:57:48 57° 260° (W) 18:02:53 467.674
Cubesat XI-IV 22 Jan 17:53:25 17:58:39 62° 73° (ENE) 18:03:53 437.490
NOAA 15 22 Jan 17:53:38 17:58:53 67° 73° (ENE) 18:04:10 137.62
CINEMA 3 22 Jan 17:56:19 17:58:24 13° 65° (ENE) 18:00:28 145.822/145.860
BRITE-PL 22 Jan 18:02:07 18:06:28 22° 267° (W) 18:10:46 437.365/2234.400
AUBIESAT-1 22 Jan 18:07:56 18:10:09 17° 297° (WNW) 18:12:21 437.475
CUBESAT XI-V 22 Jan 18:09:20 18:13:44 41° 288° (WNW) 18:18:06 437.345
SO-50 22 Jan 18:10:27 18:12:54 15° 251° (WSW) 18:15:22 436.795
NOAA 18 22 Jan 18:17:17 18:22:40 59° 72° (ENE) 18:28:03 137.9125
DOVE 4 22 Jan 18:19:31 18:24:30 73° 258° (WSW) 18:29:12 437.250
GONETS M04 22 Jan 18:21:11 18:25:00 14° 75° (ENE) 18:28:49
AIST 2 22 Jan 18:21:14 18:23:39 15° 109° (ESE) 18:26:05 435.215
STARS 22 Jan 18:26:14 18:29:57 27° 291° (WNW) 18:33:38 437.465
CUTE 1.7 + AOD 2 22 Jan 18:33:23 18:36:19 19° 67° (ENE) 18:39:17 437.475
SRMSAT 22 Jan 18:35:54 18:37:10 11° 185° (S) 18:38:25 437.500
CUTE-I 22 Jan 18:49:45 18:54:41 39° 262° (W) 18:59:38 437.470
LilacSat-2 22 Jan 18:51:12 18:54:11 22° 265° (W) 18:57:12 437.200
CANX-2 22 Jan 19:01:51 19:05:53 44° 73° (ENE) 19:09:58 2200.000
SEEDS 22 Jan 19:08:06 19:11:45 29° 71° (ENE) 19:15:27 437.485
COMPASS 1 22 Jan 19:09:21 19:12:26 20° 68° (ENE) 19:15:31 437.405
STRAND 1 22 Jan 19:16:13 19:20:34 27° 96° (E) 19:24:55 437.568
AAUSAT CUBESAT 2 22 Jan 19:18:09 19:21:08 19° 68° (ENE) 19:24:08 437.432
Cosmos 2499 22 Jan 19:18:50 19:26:44 47° 90° (E) 19:34:05 435.465 / 435.565
HO-68 22 Jan 19:30:44 19:37:58 89° 254° (WSW) 19:45:13 435.675
CINEMA 3 22 Jan 19:30:50 19:35:08 52° 260° (W) 19:39:18 145.822/145.860
Cubesat XI-IV 22 Jan 19:36:06 19:39:07 15° 269° (W) 19:42:09 437.490
NOAA 15 22 Jan 19:36:22 19:39:06 14° 269° (W) 19:41:51 137.62
Oscar 11 22 Jan 19:42:08 19:44:28 14° 65° (ENE) 19:46:48 145.826/435.025
AIST 2 22 Jan 19:57:46 20:01:43 45° 306° (NW) 20:05:45 435.215
NOAA 18 22 Jan 20:00:09 20:03:40 17° 267° (W) 20:07:12 137.9125
CUTE 1.7 + AOD 2 22 Jan 20:07:58 20:11:53 36° 263° (W) 20:15:50 437.475
CUBEBUG 2 22 Jan 20:08:34 20:12:44 90° 262° (W) 20:16:53 437.445
GONETS M04 22 Jan 20:11:36 20:20:16 80° 94° (E) 20:29:02
FUNcube-1 22 Jan 20:20:11 20:24:00 38° 72° (ENE) 20:27:53 145.935
UWE-3 22 Jan 20:31:35 20:35:43 79° 258° (WSW) 20:39:53 435.000/436.395/437.385
CANX-2 22 Jan 20:39:38 20:41:57 14° 268° (W) 20:44:18 2200.000
COMPASS 1 22 Jan 20:44:00 20:47:44 32° 263° (W) 20:51:32 437.405
SEEDS 22 Jan 20:44:12 20:47:26 21° 266° (W) 20:50:43 437.485
ZACube-1 22 Jan 20:44:28 20:48:35 84° 77° (ENE) 20:52:46 437.345
AAUSAT CUBESAT 2 22 Jan 20:52:35 20:56:21 33° 263° (W) 21:00:10 437.432
STRAND 1 22 Jan 20:55:09 20:59:44 34° 291° (WNW) 21:04:19 437.568
Cosmos 2499 22 Jan 21:12:31 21:19:56 35° 286° (WNW) 21:26:56 435.465 / 435.565
Oscar 11 22 Jan 21:15:59 21:20:09 49° 261° (W) 21:24:22 145.826/435.025
HO-68 22 Jan 21:22:54 21:26:32 14° 271° (W) 21:30:10 435.675
ISS 22 Jan 21:33:49 21:37:02 61° 138° (SE) 21:40:15 145.825
DELFI C3 22 Jan 21:46:18 21:50:17 66° 259° (W) 21:54:18 145.870
UNISAT 6 22 Jan 21:49:50 21:52:54 18° 94° (E) 21:56:00 437.425
BY70-1 22 Jan 21:53:07 21:54:26 12° 66° (ENE) 21:55:47 436.1900
FUNcube-1 22 Jan 21:57:58 22:00:25 15° 268° (W) 22:02:53 145.935
TIGRISAT 22 Jan 22:01:58 22:05:29 22° 95° (E) 22:09:04 435.000
HUMSAT D 22 Jan 22:08:05 22:12:09 71° 258° (WSW) 22:16:19 437.325/437.525
ESTCUBE 1 22 Jan 22:08:47 22:11:28 16° 65° (ENE) 22:14:10 437.505/2401.250
GONETS M04 22 Jan 22:11:53 22:18:05 21° 295° (WNW) 22:24:21
AO-85 22 Jan 22:11:55 22:15:33 35° 53° (NE) 22:19:09 145.980
PRISM 22 Jan 22:13:29 22:17:36 75° 283° (WNW) 22:21:39 437.425
ANTELSAT 22 Jan 22:17:26 22:21:33 35° 98° (E) 22:25:44 437.575/2403.000
CUBEBUG 1 22 Jan 22:47:18 22:50:45 23° 68° (ENE) 22:54:11 437.445
RS-15 22 Jan 22:59:42 23:10:53 52° 110° (ESE) 23:22:31 29.354- 29.394
PCSat 22 Jan 23:07:38 23:09:32 12° 102° (ESE) 23:11:27 145.827
AISAT 22 Jan 23:10:31 23:14:13 27° 69° (ENE) 23:17:56 437.250
ISS 22 Jan 23:11:16 23:13:45 20° 336° (NNW) 23:16:14 145.825
POPSAT HIP 1 22 Jan 23:13:20 23:14:56 12° 91° (E) 23:16:32 437.405
DUCHIFAT 1 22 Jan 23:20:35 23:22:20 12° 91° (E) 23:24:06 145.980
JAS-2 22 Jan 23:21:19 23:28:36 60° 101° (E) 23:36:19 435.910
BY70-1 22 Jan 23:21:39 23:24:20 29° 263° (W) 23:27:12 436.1900
UNISAT 6 22 Jan 23:25:33 23:29:43 40° 288° (WNW) 23:33:59 437.425
NANOSAT C BR1 22 Jan 23:26:45 23:29:26 16° 93° (E) 23:32:08 145.865
TIGRISAT 22 Jan 23:38:13 23:42:10 32° 289° (WNW) 23:46:12 435.000
YUBILEINY 22 Jan 23:41:55 23:46:02 14° 60° (ENE) 23:50:09 435.215
VELOX 1 22 Jan 23:42:58 23:47:19 57° 74° (ENE) 23:51:41 145.980
ESTCUBE 1 22 Jan 23:43:26 23:47:50 50° 260° (W) 23:52:16 437.505/2401.250
SPROUT 22 Jan 23:51:39 23:55:45 50° 73° (ENE) 23:59:52 437.525
AO-85 22 Jan 23:53:04 23:55:38 17° 249° (WSW) 23:58:13 145.980
ANTELSAT 22 Jan 23:54:40 23:58:01 21° 292° (WNW) 00:01:25 437.575/2403.000
UKube-1 23 Jan 00:00:21 00:04:06 30° 70° (ENE) 00:07:52 .
DX 1 23 Jan 00:06:11 00:10:23 48° 73° (ENE) 00:14:36 434.975-435.025
QB50P1 23 Jan 00:19:34 00:23:48 75° 102° (ESE) 00:28:01 145.935-145.965
BEESAT 2 23 Jan 00:20:15 00:22:23 14° 44° (NE) 00:24:31 435.950
CUBEBUG 1 23 Jan 00:22:56 00:26:50 31° 263° (W) 00:30:45 437.445
POLYITAN 1 23 Jan 00:24:36 00:28:51 87° 99° (E) 00:33:07 437.675
QB50P2 23 Jan 00:25:58 00:30:13 84° 281° (W) 00:34:28 145.880/145.840
50 SAT 23 Jan 00:27:28 00:30:56 50° 260° (W) 00:34:26 437.505
Cosmos 2491 23 Jan 00:33:15 00:37:03 14° 76° (ENE) 00:40:52 435.465 / 435.565
PHONESAT 2.4 23 Jan 00:38:36 00:40:19 19° 154° (SSE) 00:42:02 2401.200-2431.200
PCSat 23 Jan 00:46:44 00:52:08 83° 298° (WNW) 00:57:36 145.827
AISAT 23 Jan 00:46:51 00:50:35 26° 264° (W) 00:54:21 437.250
POPSAT HIP 1 23 Jan 00:46:53 00:50:59 53° 286° (WNW) 00:55:06 437.405
DUCHIFAT 1 23 Jan 00:54:12 00:58:17 50° 286° (WNW) 01:02:21 145.980
NANOSAT C BR1 23 Jan 01:01:23 01:05:17 38° 288° (WNW) 01:09:11 145.865
AIST 1 23 Jan 01:04:37 01:08:49 57° 80° (E) 01:12:59
BEESAT 3 23 Jan 01:05:40 01:09:41 82° 59° (ENE) 01:13:40 437.485
JAS-2 23 Jan 01:07:07 01:13:11 29° 296° (WNW) 01:19:34 435.910
Cosmos 2504 23 Jan 01:07:40 01:13:17 23° 68° (ENE) 01:18:45 435.465 / 435.565
TISAT 1 23 Jan 01:09:50 01:13:53 52° 74° (ENE) 01:17:57 437.305
RS-15 23 Jan 01:11:57 01:23:27 51° 313° (NW) 01:35:25 29.354- 29.394
BUGSAT 1 23 Jan 01:17:25 01:21:28 80° 283° (WNW) 01:25:32 437.445
VELOX 1 23 Jan 01:22:17 01:24:05 12° 269° (W) 01:25:54 145.980
Oscar 19 23 Jan 01:28:16 01:32:52 32° 97° (E) 01:37:24 437.125/150
SPROUT 23 Jan 01:30:03 01:31:56 13° 269° (W) 01:33:50 437.525
BEESAT 23 Jan 01:33:48 01:37:18 21° 66° (ENE) 01:40:49 436.000
SWISSCUBE 23 Jan 01:35:24 01:39:11 24° 67° (ENE) 01:42:59 437.505
YUBILEINY 23 Jan 01:35:41 01:44:32 74° 81° (E) 01:53:16 435.215
UKube-1 23 Jan 01:36:45 01:40:07 22° 265° (W) 01:43:31 .
DX 1 23 Jan 01:44:32 01:46:49 14° 268° (W) 01:49:07 434.975-435.025
CUSAT 1 23 Jan 01:48:35 01:49:36 10° 75° (ENE) 01:50:39 437.405
BEESAT 2 23 Jan 01:56:34 02:00:35 65° 242° (WSW) 02:04:34 435.950
Gurwin Techsat 1B 23 Jan 02:04:27 02:09:24 38° 98° (E) 02:14:18 435.225
PHONESAT 2.4 23 Jan 02:11:46 02:13:59 81° 349° (N) 02:16:12 2401.200-2431.200
Cosmos 2491 23 Jan 02:23:40 02:32:21 80° 95° (E) 02:41:06 435.465 / 435.565
ISS 23 Jan 02:27:13 02:28:54 13° 17° (NNE) 02:30:35 145.825
PCSat 23 Jan 02:33:34 02:36:23 14° 318° (NW) 02:39:12 145.827
ITUPSAT 1 23 Jan 02:37:13 02:41:58 90° 79° (E) 02:46:47 437.325
MOZHAYETS 4 23 Jan 02:41:04 02:44:58 28° 69° (ENE) 02:48:54
M-CUBED/EXP-1 PRIME 23 Jan 02:43:53 02:46:39 17° 63° (ENE) 02:49:18 437.505
AIST 2 23 Jan 02:43:54 02:44:50 11° 40° (NE) 02:45:46 435.215
AIST 1 23 Jan 02:45:18 02:45:49 10° 276° (W) 02:46:20
TISAT 1 23 Jan 02:48:21 02:49:48 12° 269° (W) 02:51:16 437.305
AO-7 23 Jan 02:54:11 02:59:56 20° 92° (E) 03:05:37 29.400- 29.500
Cosmos 2504 23 Jan 03:00:01 03:07:10 58° 268° (W) 03:14:08 435.465 / 435.565
KKS-1 23 Jan 03:01:36 03:04:09 15° 64° (ENE) 03:06:42 437.445
DANDE 23 Jan 03:06:23 03:07:26 11° 77° (ENE) 03:08:32 436.750
Oscar 19 23 Jan 03:07:40 03:12:05 29° 293° (WNW) 03:16:28 437.125/150
BEESAT 23 Jan 03:10:20 03:14:47 40° 261° (W) 03:19:16 436.000
SWISSCUBE 23 Jan 03:12:29 03:16:46 34° 262° (W) 03:21:07 437.505
AUBIESAT-1 23 Jan 03:17:02 03:20:43 30° 67° (ENE) 03:24:12 437.475
CUSAT 1 23 Jan 03:24:36 03:29:51 84° 96° (E) 03:36:42 437.405
RS-15 23 Jan 03:31:11 03:40:02 22° 344° (NNW) 03:49:00 29.354- 29.394
YUBILEINY 23 Jan 03:34:08 03:40:20 22° 280° (W) 03:46:32 435.215
CUBESAT XI-V 23 Jan 03:35:32 03:38:33 17° 65° (ENE) 03:41:35 437.345
Gurwin Techsat 1B 23 Jan 03:44:47 03:49:08 26° 294° (WNW) 03:53:28 435.225
PHONESAT 2.4 23 Jan 03:45:42 03:47:54 59° 5° (N) 03:50:06 2401.200-2431.200
STARS 23 Jan 03:45:58 03:49:09 20° 67° (ENE) 03:52:21 437.465
ITAMSAT 1 23 Jan 03:56:05 04:01:20 84° 104° (ESE) 04:06:33 435.822/435.867
ISS 23 Jan 04:02:45 04:05:57 54° 35° (NE) 04:09:08 145.825
M-CUBED/EXP-1 PRIME 23 Jan 04:16:44 04:20:51 41° 255° (WSW) 04:24:44 437.505
MOZHAYETS 4 23 Jan 04:18:15 04:22:04 26° 265° (W) 04:25:55
AIST 2 23 Jan 04:19:45 04:24:01 80° 60° (ENE) 04:28:14 435.215
Cosmos 2491 23 Jan 04:24:02 04:30:11 21° 295° (WNW) 04:36:24 435.465 / 435.565
BRITE-PL 23 Jan 04:30:41 04:33:14 14° 89° (E) 04:35:41 437.365/2234.400
KKS-1 23 Jan 04:35:58 04:40:16 50° 259° (W) 04:44:37 437.445
DANDE 23 Jan 04:44:59 04:48:54 58° 284° (WNW) 04:54:14 436.750
AO-7 23 Jan 04:45:06 04:53:30 81° 290° (WNW) 05:01:48 29.400- 29.500
AUBIESAT-1 23 Jan 04:51:52 04:55:06 21° 259° (W) 04:58:11 437.475
CUSAT 1 23 Jan 05:09:46 05:13:03 15° 301° (WNW) 05:16:43 437.405
CUBESAT XI-V 23 Jan 05:10:58 05:15:30 49° 261° (W) 05:20:05 437.345
Cosmos 2499 23 Jan 05:14:29 05:16:41 11° 61° (ENE) 05:18:51 435.465 / 435.565
PHONESAT 2.4 23 Jan 05:19:36 05:21:41 37° 201° (SSW) 05:23:47 2401.200-2431.200
STARS 23 Jan 05:21:15 05:25:15 35° 262° (W) 05:29:16 437.465
HORYU 2 23 Jan 05:37:34 05:41:33 31° 97° (E) 05:45:31 437.375
ITAMSAT 1 23 Jan 05:38:01 05:40:03 12° 300° (WNW) 05:42:05 435.822/435.867
ISS 23 Jan 05:40:17 05:42:06 14° 231° (SW) 05:43:55 145.825
O/OREOS (USA 219) 23 Jan 05:44:16 05:48:22 36° 105° (ESE) 05:52:28 437.305
RS-15 23 Jan 05:49:29 05:58:53 24° 21° (NNE) 06:08:09 29.354- 29.394
GOMX 1 23 Jan 05:56:04 06:00:13 44° 98° (E) 06:04:12 467.674
BRITE-PL 23 Jan 06:07:31 06:12:07 49° 288° (WNW) 06:16:23 437.365/2234.400
NOAA 15 23 Jan 06:10:26 06:14:55 27° 96° (E) 06:19:22 137.62
Cubesat XI-IV 23 Jan 06:12:12 06:16:42 27° 96° (E) 06:21:11 437.490
DOVE 4 23 Jan 06:19:59 06:23:37 29° 96° (E) 06:27:13 437.250
GONETS M04 23 Jan 06:23:32 06:31:37 38° 73° (ENE) 06:39:38
LilacSat-2 23 Jan 06:24:36 06:28:14 38° 98° (E) 06:31:52 437.200
STRAND 1 23 Jan 06:30:57 06:35:32 35° 69° (ENE) 06:40:09 437.568
AO-7 23 Jan 06:39:48 06:44:59 18° 309° (NW) 06:50:10 29.400- 29.500
NOAA 18 23 Jan 06:40:56 06:45:29 27° 96° (E) 06:50:00 137.9125
SO-50 23 Jan 06:42:12 06:45:55 23° 112° (ESE) 06:49:37 436.795
HO-68 23 Jan 07:01:26 07:06:05 18° 91° (E) 07:10:42 435.675
Cosmos 2499 23 Jan 07:03:57 07:11:05 79° 82° (E) 07:18:11 435.465 / 435.565
CUTE-I 23 Jan 07:07:18 07:12:40 90° 314° (NW) 07:18:02 437.470
HORYU 2 23 Jan 07:14:24 07:17:54 23° 293° (WNW) 07:21:25 437.375
O/OREOS (USA 219) 23 Jan 07:24:31 07:27:52 21° 302° (WNW) 07:31:14 437.305
CINEMA 3 23 Jan 07:26:08 07:30:03 35° 98° (E) 07:34:04 145.822/145.860
GOMX 1 23 Jan 07:35:28 07:37:54 15° 296° (WNW) 07:40:17 467.674
NOAA 15 23 Jan 07:49:54 07:54:43 36° 291° (WNW) 07:59:29 137.62
Cubesat XI-IV 23 Jan 07:51:56 07:56:47 36° 291° (WNW) 08:01:38 437.490
CUTE 1.7 + AOD 2 23 Jan 07:53:35 07:57:39 40° 98° (E) 08:01:40 437.475
PCSat 23 Jan 07:55:12 07:56:36 11° 39° (NE) 07:57:59 145.827
DOVE 4 23 Jan 07:58:04 08:01:09 20° 292° (WNW) 08:04:14 437.250
LilacSat-2 23 Jan 08:00:02 08:02:10 15° 293° (WNW) 08:04:20 437.200
CUBEBUG 2 23 Jan 08:00:39 08:03:57 20° 94° (E) 08:07:20 437.445
RS-15 23 Jan 08:02:40 08:14:53 59° 51° (NE) 08:26:35 29.354- 29.394
STRAND 1 23 Jan 08:10:33 08:14:44 26° 265° (W) 08:18:57 437.568
GONETS M04 23 Jan 08:20:14 08:28:30 46° 272° (W) 08:36:46
NOAA 18 23 Jan 08:21:11 08:26:12 38° 292° (WNW) 08:31:11 137.9125
SO-50 23 Jan 08:21:44 08:26:10 39° 308° (NW) 08:30:32 436.795
UWE-3 23 Jan 08:22:22 08:25:52 22° 95° (E) 08:29:24 435.000/436.395/437.385
CANX-2 23 Jan 08:23:20 08:27:39 77° 283° (WNW) 08:31:54 2200.000
COMPASS 1 23 Jan 08:27:21 08:31:21 41° 98° (E) 08:35:17 437.405
SEEDS 23 Jan 08:27:49 08:32:04 67° 101° (E) 08:36:16 437.485
ZACube-1 23 Jan 08:34:23 08:37:27 18° 93° (E) 08:40:33 437.345
AAUSAT CUBESAT 2 23 Jan 08:35:26 08:39:22 38° 98° (E) 08:43:15 437.432
HO-68 23 Jan 08:47:16 08:54:27 77° 288° (WNW) 09:01:35 435.675
UNISAT 6 23 Jan 08:48:52 08:50:57 13° 64° (ENE) 08:53:01 437.425
CUTE-I 23 Jan 08:50:06 08:51:55 12° 301° (WNW) 08:53:44 437.470
Cosmos 2499 23 Jan 08:59:28 09:03:13 15° 280° (W) 09:06:58 435.465 / 435.565
TIGRISAT 23 Jan 09:00:30 09:03:11 17° 66° (ENE) 09:05:55 435.000
PRISM 23 Jan 09:01:09 09:05:17 64° 75° (ENE) 09:09:25 437.425
CINEMA 3 23 Jan 09:04:02 09:06:57 18° 292° (WNW) 09:09:55 145.822/145.860
Oscar 11 23 Jan 09:04:19 09:08:13 31° 97° (E) 09:12:05 145.826/435.025
ANTELSAT 23 Jan 09:15:37 09:19:07 26° 69° (ENE) 09:22:39 437.575/2403.000
DELFI C3 23 Jan 09:25:43 09:28:15 16° 93° (E) 09:30:47 145.870
CUTE 1.7 + AOD 2 23 Jan 09:30:21 09:33:09 17° 293° (WNW) 09:35:55 437.475
JAS-2 23 Jan 09:35:08 09:38:52 19° 60° (ENE) 09:42:51 435.910
PCSat 23 Jan 09:35:44 09:41:07 61° 59° (ENE) 09:46:28 145.827
CUBEBUG 2 23 Jan 09:36:39 09:40:37 34° 288° (WNW) 09:44:40 437.445
FUNcube-1 23 Jan 09:44:27 09:48:53 81° 285° (WNW) 09:53:24 145.935
HUMSAT D 23 Jan 09:53:03 09:56:14 20° 94° (E) 09:59:24 437.325/437.525
UWE-3 23 Jan 09:58:24 10:02:18 31° 289° (WNW) 10:06:17 435.000/436.395/437.385
COMPASS 1 23 Jan 10:03:58 10:06:31 16° 294° (WNW) 10:09:03 437.405
SEEDS 23 Jan 10:06:13 10:07:09 11° 297° (WNW) 10:08:05 437.485
ZACube-1 23 Jan 10:09:43 10:13:50 39° 288° (WNW) 10:18:01 437.345
AAUSAT CUBESAT 2 23 Jan 10:11:50 10:14:30 17° 294° (WNW) 10:17:08 437.432
RS-15 23 Jan 10:15:50 10:26:56 43° 253° (WSW) 10:37:38 29.354- 29.394
NANOSAT C BR1 23 Jan 10:19:25 10:20:40 11° 63° (ENE) 10:21:56 145.865
UNISAT 6 23 Jan 10:23:04 10:27:12 51° 260° (W) 10:31:22 437.425
TIGRISAT 23 Jan 10:35:36 10:39:34 39° 262° (W) 10:43:34 435.000
HO-68 23 Jan 10:37:26 10:41:00 15° 307° (NW) 10:44:35 435.675
Oscar 11 23 Jan 10:40:47 10:44:08 22° 292° (WNW) 10:47:29 145.826/435.025
ANTELSAT 23 Jan 10:52:18 10:55:46 24° 265° (W) 10:59:16 437.575/2403.000
DELFI C3 23 Jan 10:59:32 11:03:09 33° 288° (WNW) 11:06:43 145.870
QB50P1 23 Jan 11:10:39 11:14:39 46° 73° (ENE) 11:18:41 145.935-145.965
POLYITAN 1 23 Jan 11:15:48 11:19:52 53° 74° (ENE) 11:23:57 437.675
QB50P2 23 Jan 11:17:06 11:21:14 60° 75° (ENE) 11:25:23 145.880/145.840
JAS-2 23 Jan 11:18:03 11:23:18 58° 260° (W) 11:29:09 435.910
PCSat 23 Jan 11:20:33 11:23:57 17° 256° (WSW) 11:27:21 145.827
HUMSAT D 23 Jan 11:28:01 11:31:52 33° 289° (WNW) 11:35:43 437.325/437.525
VELOX 1 23 Jan 11:36:27 11:37:49 11° 91° (E) 11:39:10 145.980
ESTCUBE 1 23 Jan 11:37:01 11:41:11 36° 98° (E) 11:45:20 437.505/2401.250
POPSAT HIP 1 23 Jan 11:37:42 11:41:54 85° 260° (W) 11:46:06 437.405
DUCHIFAT 1 23 Jan 11:44:21 11:48:31 83° 258° (WSW) 11:52:42 145.980
NANOSAT C BR1 23 Jan 11:51:44 11:55:51 61° 259° (W) 12:00:00 145.865
50 SAT 23 Jan 11:55:54 11:57:05 11° 92° (E) 11:58:16 437.505
BY70-1 23 Jan 11:56:38 11:59:43 48° 286° (WNW) 12:02:33 436.1900
BUGSAT 1 23 Jan 12:05:42 12:09:40 58° 74° (ENE) 12:13:38 437.445
CUBEBUG 1 23 Jan 12:11:58 12:16:11 50° 100° (E) 12:20:21 437.445
CUSAT 1 23 Jan 12:20:02 12:23:03 12° 57° (ENE) 12:25:59 437.405
AO-85 23 Jan 12:25:59 12:29:07 18° 111° (ESE) 12:32:07 145.980
AISAT 23 Jan 12:37:04 12:41:25 61° 101° (E) 12:45:44 437.250
